QPF
0.00 0.00 0.00 0.00 0.00 0.00 0.01 0.01 0.00 0.01 0.01 0.01 0.01 0.01 0.01 0.01 0.01 0.01 0.02 0.02 0.01 0.01 0.02 0.02 0.02 0.01 0.03 0.05 0.04 0.02 0.02 0.01 0.01 0.01 0.04 0.06 0.02 0.01 0.01 0.02 0.02 0.02 0.04 0.06
0.00 0.00 0.00 0.00 0.00 0.00 0.01 0.01 0.00 0.00 0.00 0.01 0.00 0.01 0.01 0.01 0.02 0.01 0.01 0.01 0.01 0.02 0.02 0.02 0.01 0.01 0.02 0.04 0.05 0.04 0.02 0.01 0.01 0.03 0.03 0.05 0.05 0.03 0.02 0.03 0.04 0.03 0.02 0.03
0.00 0.00 0.00 0.00 0.00 0.01 0.01 0.01 0.00 0.00 0.00 0.00 0.00 0.01 0.01 0.01 0.01 0.01 0.01 0.02 0.02 0.02 0.01 0.02 0.01 0.00 0.01 0.02 0.04 0.06 0.05 0.03 0.02 0.04 0.03 0.03 0.04 0.04 0.04 0.04 0.04 0.04 0.04 0.03
0.00 0.00 0.00 0.00 0.01 0.00 0.00 0.00 0.00 0.01 0.01 0.00 0.01 0.01 0.01 0.01 0.00 0.01 0.01 0.02 0.02 0.01 0.01 0.02 0.01 0.01 0.01 0.01 0.02 0.04 0.04 0.04 0.04 0.04 0.04 0.02 0.02 0.02 0.03 0.03 0.04 0.05 0.05 0.04
0.00 0.00 0.00 0.00 0.00 0.00 0.00 0.00 0.00 0.00 0.00 0.00 0.01 0.01 0.01 0.01 0.00 0.00 0.00 0.01 0.01 0.01 0.01 0.01 0.02 0.03 0.03 0.03 0.03 0.04 0.05 0.03 0.04 0.04 0.03 0.03 0.02 0.02 0.03 0.04 0.04 0.05 0.06 0.08
0.00 0.00 0.00 0.00 0.00 0.00 0.00 0.01 0.01 0.01 0.01 0.00 0.01 0.01 0.01 0.01 0.00 0.00 0.00 0.00 0.00 0.01 0.01 0.01 0.02 0.04 0.04 0.05 0.06 0.07 0.04 0.02 0.02 0.02 0.02 0.02 0.03 0.03 0.04 0.04 0.04 0.05 0.07 0.12
0.00 0.00 0.00 0.00 0.00 0.00 0.00 0.01 0.01 0.01 0.01 0.01 0.01 0.01 0.01 0.00 0.00 0.00 0.00 0.00 0.00 0.01 0.01 0.01 0.02 0.03 0.05 0.05 0.06 0.05 0.02 0.02 0.02 0.02 0.02 0.02 0.02 0.02 0.03 0.03 0.04 0.05 0.04 0.06
0.00 0.00 0.00 0.00 0.00 0.01 0.01 0.01 0.01 0.01 0.01 0.00 0.00 0.00 0.00 0.00 0.00 0.00 0.01 0.01 0.01 0.01 0.01 0.01 0.01 0.02 0.04 0.05 0.06 0.06 0.05 0.04 0.03 0.02 0.02 0.02 0.03 0.03 0.03 0.04 0.03 0.03 0.03 0.03
0.00 0.00 0.00 0.00 0.00 0.01 0.01 0.01 0.01 0.01 0.00 0.00 0.00 0.00 0.00 0.00 0.00 0.01 0.02 0.01 0.01 0.00 0.01 0.01 0.01 0.01 0.02 0.03 0.05 0.06 0.06 0.06 0.04 0.03 0.03 0.03 0.03 0.03 0.03 0.04 0.03 0.02 0.03 0.03
0.00 0.00 0.00 0.00 0.00 0.01 0.01 0.01 0.00 0.01 0.00 0.00 0.00 0.00 0.01 0.01 0.01 0.01 0.01 0.01 0.01 0.00 0.01 0.01 0.01 0.01 0.01 0.01 0.01 0.01 0.02 0.03 0.04 0.04 0.03 0.04 0.05 0.04 0.03 0.03 0.03 0.02 0.02 0.02
0.00 0.00 0.00 0.00 0.00 0.01 0.01 0.01 0.00 0.00 0.00 0.01 0.00 0.00 0.01 0.01 0.01 0.01 0.01 0.01 0.01 0.01 0.01 0.01 0.01 0.00 0.00 0.00 0.00 0.00 0.01 0.03 0.04 0.06 0.05 0.03 0.04 0.04 0.03 0.02 0.02 0.02 0.01 0.02
0.00 0.00 0.00 0.00 0.00 0.00 0.00 0.00 0.00 0.00 0.01 0.01 0.01 0.01 0.01 0.01 0.01 0.01 0.01 0.00 0.00 0.01 0.00 0.00 0.00 0.00 0.00 0.00 0.00 0.01 0.01 0.02 0.03 0.05 0.05 0.04 0.03 0.03 0.02 0.02 0.02 0.01 0.01 0.02
0.00 0.00 0.00 0.00 0.00 0.00 0.00 0.00 0.00 0.00 0.01 0.01 0.01 0.00 0.00 0.00 0.00 0.00 0.00 0.00 0.00 0.01 0.01 0.00 0.00 0.00 0.00 0.00 0.00 0.01 0.01 0.02 0.02 0.04 0.05 0.04 0.04 0.02 0.03 0.03 0.02 0.01 0.02 0.02
0.00 0.00 0.00 0.00 0.00 0.00 0.00 0.00 0.00 0.00 0.00 0.00 0.00 0.00 0.00 0.00 0.00 0.00 0.00 0.00 0.00 0.01 0.00 0.00 0.00 0.00 0.00 0.01 0.01 0.01 0.02 0.03 0.04 0.04 0.04 0.03 0.03 0.02 0.02 0.01 0.01 0.01 0.01 0.01
0.00 0.00 0.00 0.00 0.00 0.00 0.00 0.00 0.00 0.00 0.00 0.00 0.00 0.00 0.00 0.00 0.00 0.01 0.01 0.00 0.00 0.01 0.00 0.00 0.00 0.00 0.01 0.01 0.01 0.02 0.03 0.04 0.04 0.04 0.04 0.04 0.03 0.01 0.01 0.01 0.01 0.01 0.01 0.02
0.00 0.00 0.00 0.00 0.00 0.00 0.00 0.00 0.00 0.00 0.00 0.00 0.00 0.00 0.00 0.00 0.00 0.00 0.01 0.01 0.01 0.01 0.01 0.01 0.00 0.01 0.01 0.01 0.02 0.03 0.03 0.04 0.04 0.05 0.07 0.08 0.06 0.03 0.01 0.01 0.01 0.01 0.02 0.02
0.00 0.00 0.00 0.00 0.00 0.00 0.00 0.00 0.00 0.00 0.00 0.00 0.00 0.00 0.00 0.00 0.00 0.01 0.01 0.01 0.01 0.01 0.01 0.01 0.01 0.01 0.02 0.02 0.02 0.03 0.04 0.05 0.06 0.07 0.07 0.07 0.06 0.03 0.02 0.01 0.01 0.02 0.03 0.04
0.00 0.00 0.00 0.00 0.00 0.00 0.00 0.00 0.00 0.01 0.00 0.00 0.00 0.00 0.00 0.00 0.01 0.01 0.01 0.01 0.01 0.01 0.01 0.01 0.01 0.02 0.02 0.02 0.03 0.03 0.05 0.06 0.06 0.06 0.06 0.05 0.04 0.02 0.01 0.02 0.01 0.02 0.03 0.05
0.00 0.00 0.00 0.00 0.00 0.00 0.01 0.01 0.01 0.01 0.01 0.00 0.00 0.00 0.01 0.01 0.02 0.02 0.02 0.02 0.02 0.02 0.02 0.02 0.02 0.02 0.02 0.02 0.02 0.03 0.04 0.05 0.04 0.03 0.03 0.03 0.03 0.02 0.02 0.02 0.02 0.03 0.03 0.04
0.00 0.00 0.00 0.00 0.00 0.00 0.00 0.00 0.00 0.01 0.01 0.01 0.01 0.01 0.01 0.02 0.03 0.02 0.02 0.02 0.02 0.02 0.02 0.03 0.02 0.02 0.02 0.02 0.02 0.03 0.03 0.03 0.02 0.02 0.02 0.02 0.02 0.02 0.02 0.02 0.03 0.02 0.03 0.02
0.00 0.00 0.00 0.00 0.00 0.00 0.00 0.00 0.01 0.01 0.01 0.01 0.01 0.02 0.02 0.02 0.02 0.02 0.02 0.02 0.02 0.02 0.02 0.03 0.03 0.02 0.02 0.02 0.02 0.02 0.02 0.02 0.03 0.02 0.02 0.02 0.02 0.01 0.01 0.01 0.02 0.03 0.03 0.02
0.00 0.00 0.00 0.00 0.00 0.00 0.00 0.01 0.01 0.01 0.01 0.00 0.00 0.01 0.01 0.01 0.01 0.01 0.02 0.02 0.02 0.02 0.03 0.03 0.03 0.03 0.02 0.01 0.01 0.02 0.02 0.02 0.01 0.02 0.02 0.01 0.01 0.01 0.01 0.02 0.03 0.04 0.04 0.04
0.00 0.00 0.00 0.00 0.01 0.00 0.00 0.01 0.01 0.01 0.01 0.01 0.00 0.01 0.01 0.01 0.01 0.01 0.02 0.02 0.03 0.03 0.03 0.03 0.03 0.02 0.02 0.01 0.01 0.01 0.01 0.01 0.01 0.01 0.01 0.01 0.01 0.01 0.01 0.03 0.04 0.04 0.04 0.04
0.00 0.00 0.01 0.01 0.01 0.00 0.00 0.00 0.00 0.00 0.00 0.00 0.00 0.01 0.01 0.01 0.01 0.01 0.01 0.02 0.02 0.02 0.02 0.03 0.03 0.02 0.02 0.01 0.01 0.00 0.00 0.01 0.01 0.01 0.01 0.01 0.01 0.01 0.02 0.03 0.03 0.03 0.04 0.04
0.00 0.00 0.00 0.00 0.01 0.01 0.00 0.00 0.00 0.00 0.00 0.00 0.00 0.01 0.01 0.01 0.01 0.02 0.02 0.01 0.02 0.02 0.03 0.03 0.02 0.01 0.00 0.00 0.00 0.01 0.01 0.01 0.01 0.01 0.01 0.00 0.01 0.01 0.02 0.02 0.03 0.03 0.03 0.04
0.01 0.00 0.00 0.01 0.01 0.01 0.01 0.00 0.00 0.00 0.01 0.01 0.01 0.01 0.03 0.03 0.02 0.02 0.02 0.01 0.01 0.01 0.00 0.00 0.00 0.00 0.00 0.00 0.01 0.01 0.01 0.01 0.00 0.00 0.00 0.01 0.01 0.02 0.02 0.02 0.02 0.02 0.02 0.02
MSLP
1007.72 1008.69 1009.44 1009.95 1010.24 1010.38 1010.44 1010.50 1010.60 1010.74 1010.91 1011.05 1011.10 1011.04 1010.83 1010.50 1010.09 1009.67 1009.29 1009.01 1008.85 1008.80 1008.84 1008.91 1008.98 1009.00 1008.96 1008.86 1008.74 1008.62 1008.55 1008.54 1008.61 1008.73 1008.88 1009.03 1009.15 1009.23 1009.27 1009.30 1009.34 1009.43 1009.59 1009.83
1008.47 1009.27 1009.83 1010.17 1010.34 1010.44 1010.52 1010.66 1010.87 1011.13 1011.39 1011.57 1011.61 1011.47 1011.15 1010.68 1010.13 1009.59 1009.14 1008.83 1008.67 1008.67 1008.76 1008.89 1009.00 1009.04 1009.00 1008.90 1008.77 1008.65 1008.59 1008.61 1008.71 1008.86 1009.04 1009.21 1009.32 1009.37 1009.36 1009.32 1009.30 1009.33 1009.45 1009.67
1008.98 1009.58 1009.94 1010.12 1010.21 1010.29 1010.44 1010.70 1011.06 1011.47 1011.84 1012.07 1012.10 1011.88 1011.42 1010.79 1010.08 1009.40 1008.85 1008.49 1008.34 1008.37 1008.52 1008.71 1008.87 1008.95 1008.94 1008.85 1008.72 1008.61 1008.57 1008.62 1008.76 1008.97 1009.19 1009.39 1009.51 1009.54 1009.49 1009.40 1009.31 1009.28 1009.34 1009.52
1009.24 1009.62 1009.81 1009.87 1009.91 1010.03 1010.29 1010.72 1011.28 1011.86 1012.35 1012.64 1012.64 1012.32 1011.71 1010.89 1009.99 1009.15 1008.48 1008.06 1007.89 1007.95 1008.15 1008.41 1008.63 1008.76 1008.78 1008.71 1008.59 1008.50 1008.48 1008.56 1008.75 1009.01 1009.29 1009.53 1009.68 1009.72 1009.66 1009.53 1009.40 1009.31 1009.31 1009.44
1009.30 1009.49 1009.53 1009.51 1009.57 1009.78 1010.21 1010.85 1011.62 1012.38 1013.00 1013.34 1013.30 1012.86 1012.07 1011.04 1009.94 1008.91 1008.11 1007.59 1007.40 1007.47 1007.72 1008.04 1008.33 1008.51 1008.57 1008.52 1008.42 1008.33 1008.33 1008.44 1008.67 1008.98 1009.31 1009.61 1009.80 1009.87 1009.82 1009.68 1009.52 1009.39 1009.34 1009.42
1009.24 1009.27 1009.21 1009.17 1009.28 1009.64 1010.26 1011.13 1012.11 1013.05 1013.78 1014.14 1014.04 1013.47 1012.50 1011.25 1009.93 1008.72 1007.77 1007.16 1006.93 1007.01 1007.30 1007.69 1008.04 1008.28 1008.38 1008.35 1008.25 1008.17 1008.16 1008.28 1008.52 1008.86 1009.24 1009.58 1009.83 1009.94 1009.92 1009.79 1009.62 1009.46 1009.38 1009.41
1009.15 1009.06 1008.95 1008.93 1009.14 1009.65 1010.47 1011.55 1012.72 1013.80 1014.60 1014.96 1014.78 1014.07 1012.91 1011.46 1009.94 1008.55 1007.47 1006.79 1006.52 1006.62 1006.96 1007.40 1007.82 1008.11 1008.25 1008.24 1008.14 1008.04 1008.02 1008.11 1008.35 1008.70 1009.09 1009.47 1009.76 1009.91 1009.93 1009.82 1009.66 1009.49 1009.38 1009.37
1009.08 1008.92 1008.79 1008.82 1009.14 1009.80 1010.79 1012.03 1013.33 1014.50 1015.32 1015.63 1015.36 1014.51 1013.18 1011.56 1009.89 1008.38 1007.21 1006.47 1006.20 1006.32 1006.72 1007.23 1007.71 1008.06 1008.23 1008.24 1008.14 1008.02 1007.96 1008.02 1008.22 1008.54 1008.93 1009.31 1009.62 1009.81 1009.85 1009.78 1009.62 1009.45 1009.31 1009.26
1009.06 1008.87 1008.75 1008.84 1009.25 1010.03 1011.13 1012.45 1013.80 1014.97 1015.75 1015.99 1015.61 1014.63 1013.18 1011.45 1009.69 1008.12 1006.92 1006.19 1005.95 1006.12 1006.58 1007.17 1007.72 1008.13 1008.35 1008.38 1008.28 1008.13 1008.03 1008.04 1008.18 1008.46 1008.81 1009.18 1009.49 1009.68 1009.75 1009.68 1009.54 1009.35 1009.19 1009.10
1009.08 1008.89 1008.80 1008.95 1009.42 1010.24 1011.37 1012.68 1013.99 1015.08 1015.76 1015.88 1015.39 1014.32 1012.81 1011.04 1009.28 1007.73 1006.58 1005.91 1005.74 1006.00 1006.54 1007.20 1007.83 1008.30 1008.57 1008.64 1008.55 1008.39 1008.25 1008.21 1008.30 1008.51 1008.81 1009.14 1009.42 1009.61 1009.67 1009.61 1009.45 1009.26 1009.06 1008.92
1009.10 1008.95 1008.91 1009.09 1009.57 1010.37 1011.43 1012.63 1013.79 1014.72 1015.24 1015.23 1014.64 1013.53 1012.02 1010.31 1008.63 1007.20 1006.17 1005.62 1005.57 1005.92 1006.55 1007.29 1007.99 1008.53 1008.86 1008.97 1008.91 1008.76 1008.61 1008.53 1008.57 1008.72 1008.96 1009.23 1009.47 1009.63 1009.67 1009.59 1009.42 1009.20 1008.97 1008.77
1009.12 1009.01 1009.02 1009.21 1009.66 1010.36 1011.27 1012.27 1013.21 1013.91 1014.24 1014.08 1013.42 1012.31 1010.87 1009.30 1007.80 1006.55 1005.71 1005.33 1005.41 1005.87 1006.58 1007.39 1008.15 1008.75 1009.14 1009.30 1009.29 1009.18 1009.04 1008.96 1008.96 1009.07 1009.25 1009.46 1009.64 1009.76 1009.76 1009.66 1009.47 1009.21 1008.93 1008.68
1009.12 1009.08 1009.12 1009.30 1009.67 1010.22 1010.92 1011.65 1012.31 1012.75 1012.85 1012.56 1011.86 1010.80 1009.50 1008.14 1006.88 1005.88 1005.26 1005.07 1005.29 1005.84 1006.62 1007.47 1008.27 1008.91 1009.34 1009.57 1009.62 1009.56 1009.47 1009.40 1009.39 1009.47 1009.60 1009.76 1009.89 1009.95 1009.92 1009.78 1009.55 1009.26 1008.95 1008.64
1009.13 1009.16 1009.22 1009.37 1009.62 1009.98 1010.41 1010.85 1011.19 1011.35 1011.25 1010.84 1010.13 1009.17 1008.07 1006.96 1005.98 1005.26 1004.88 1004.88 1005.22 1005.85 1006.66 1007.51 1008.31 1008.97 1009.44 1009.72 1009.84 1009.85 1009.81 1009.78 1009.79 1009.85 1009.95 1010.05 1010.13 1010.14 1010.06 1009.89 1009.63 1009.31 1008.96 1008.61
1009.20 1009.28 1009.35 1009.43 1009.54 1009.68 1009.83 1009.95 1009.98 1009.88 1009.59 1009.09 1008.41 1007.59 1006.72 1005.89 1005.22 1004.78 1004.64 1004.80 1005.25 1005.91 1006.70 1007.52 1008.29 1008.93 1009.41 1009.72 1009.90 1009.98 1010.01 1010.03 1010.07 1010.13 1010.20 1010.26 1010.28 1010.24 1010.11 1009.91 1009.63 1009.29 1008.92 1008.54
1009.37 1009.47 1009.51 1009.50 1009.44 1009.35 1009.22 1009.04 1008.78 1008.44 1008.00 1007.46 1006.84 1006.18 1005.56 1005.02 1004.65 1004.48 1004.55 1004.86 1005.37 1006.03 1006.77 1007.51 1008.21 1008.80 1009.26 1009.60 1009.83 1009.97 1010.07 1010.14 1010.20 1010.26 1010.30 1010.32 1010.29 1010.20 1010.03 1009.79 1009.49 1009.14 1008.76 1008.38
1009.67 1009.74 1009.71 1009.58 1009.34 1009.02 1008.62 1008.16 1007.66 1007.12 1006.57 1006.01 1005.49 1005.02 1004.64 1004.39 1004.29 1004.37 1004.62 1005.03 1005.57 1006.20 1006.86 1007.51 1008.11 1008.63 1009.06 1009.40 1009.65 1009.85 1010.00 1010.11 1010.19 1010.25 1010.27 1010.24 1010.15 1010.01 1009.79 1009.52 1009.20 1008.85 1008.47 1008.10
1010.09 1010.08 1009.94 1009.65 1009.22 1008.67 1008.03 1007.34 1006.63 1005.95 1005.33 1004.80 1004.38 1004.10 1003.96 1003.97 1004.13 1004.41 1004.82 1005.30 1005.85 1006.43 1007.00 1007.54 1008.04 1008.48 1008.86 1009.19 1009.46 1009.69 1009.87 1010.01 1010.11 1010.15 1010.14 1010.06 1009.91 1009.71 1009.44 1009.13 1008.79 1008.44 1008.07 1007.71
1010.58 1010.45 1010.16 1009.69 1009.06 1008.30 1007.45 1006.57 1005.71 1004.94 1004.30 1003.82 1003.52 1003.41 1003.49 1003.73 1004.09 1004.56 1005.08 1005.63 1006.18 1006.70 1007.19 1007.64 1008.04 1008.41 1008.74 1009.05 1009.33 1009.57 1009.77 1009.93 1010.02 1010.03 1009.98 1009.84 1009.63 1009.36 1009.05 1008.70 1008.34 1007.97 1007.62 1007.27
1011.08 1010.79 1010.32 1009.67 1008.86 1007.91 1006.89 1005.87 1004.92 1004.10 1003.46 1003.05 1002.88 1002.93 1003.19 1003.62 1004.16 1004.76 1005.38 1005.98 1006.53 1007.02 1007.44 1007.82 1008.15 1008.46 1008.75 1009.04 1009.31 1009.56 1009.76 1009.91 1009.98 1009.96 1009.86 1009.66 1009.39 1009.06 1008.68 1008.30 1007.91 1007.52 1007.17 1006.83
1011.50 1011.04 1010.40 1009.58 1008.60 1007.52 1006.39 1005.28 1004.28 1003.46 1002.86 1002.53 1002.47 1002.66 1003.07 1003.64 1004.31 1005.02 1005.71 1006.35 1006.91 1007.38 1007.77 1008.10 1008.39 1008.66 1008.92 1009.19 1009.44 1009.68 1009.86 1009.99 1010.02 1009.96 1009.80 1009.54 1009.21 1008.81 1008.39 1007.96 1007.53 1007.13 1006.76 1006.42
1011.78 1011.17 1010.38 1009.42 1008.34 1007.17 1005.98 1004.85 1003.86 1003.08 1002.55 1002.30 1002.34 1002.64 1003.15 1003.83 1004.58 1005.36 1006.10 1006.77 1007.34 1007.81 1008.18 1008.49 1008.76 1009.00 1009.24 1009.48 1009.71 1009.91 1010.06 1010.14 1010.13 1010.01 1009.79 1009.47 1009.08 1008.63 1008.16 1007.68 1007.23 1006.80 1006.41 1006.07
1011.87 1011.14 1010.25 1009.22 1008.09 1006.91 1005.74 1004.65 1003.73 1003.02 1002.58 1002.41 1002.53 1002.90 1003.48 1004.21 1005.01 1005.82 1006.59 1007.27 1007.85 1008.32 1008.69 1008.99 1009.24 1009.47 1009.67 1009.88 1010.06 1010.21 1010.30 1010.32 1010.24 1010.06 1009.77 1009.40 1008.95 1008.46 1007.95 1007.43 1006.95 1006.50 1006.09 1005.73
1011.73 1010.94 1010.02 1008.99 1007.90 1006.78 1005.70 1004.73 1003.92 1003.32 1002.98 1002.90 1003.08 1003.50 1004.10 1004.83 1005.63 1006.44 1007.20 1007.87 1008.45 1008.91 1009.28 1009.57 1009.81 1010.00 1010.17 1010.31 1010.42 1010.50 1010.51 1010.44 1010.28 1010.02 1009.67 1009.25 1008.76 1008.23 1007.69 1007.15 1006.64 1006.17 1005.74 1005.37
1011.37 1010.59 1009.71 1008.76 1007.78 1006.81 1005.89 1005.09 1004.44 1003.99 1003.76 1003.76 1003.99 1004.42 1005.01 1005.71 1006.46 1007.22 1007.94 1008.58 1009.13 1009.58 1009.93 1010.20 1010.40 1010.55 1010.65 1010.71 1010.73 1010.70 1010.60 1010.43 1010.18 1009.85 1009.44 1008.97 1008.44 1007.89 1007.33 1006.78 1006.26 1005.78 1005.34 1004.95
1010.79 1010.08 1009.31 1008.52 1007.72 1006.96 1006.27 1005.68 1005.24 1004.95 1004.85 1004.93 1005.19 1005.61 1006.15 1006.79 1007.46 1008.15 1008.79 1009.37 1009.87 1010.27 1010.59 1010.81 1010.95 1011.03 1011.05 1011.02 1010.92 1010.77 1010.56 1010.28 1009.93 1009.52 1009.06 1008.54 1008.00 1007.44 1006.88 1006.34 1005.81 1005.33 1004.88 1004.49
Thickness
5811 5796 5785 5791 5795 5794 5788 5779 5774 5782 5794 5785 5776 5775 5781 5785 5783 5778 5776 5775 5774 5774 5776 5775 5775 5774 5772 5770 5769 5768 5766 5765 5763 5761 5759 5757 5757 5757 5757 5757 5757 5756 5755 5754
5792 5788 5802 5806 5803 5796 5789 5779 5777 5783 5792 5783 5773 5774 5781 5784 5781 5781 5778 5775 5775 5773 5773 5774 5774 5773 5771 5769 5767 5766 5764 5763 5762 5760 5759 5757 5756 5755 5755 5755 5754 5754 5753 5752
5788 5797 5811 5805 5798 5792 5788 5781 5780 5779 5783 5782 5773 5766 5773 5781 5783 5782 5781 5779 5777 5775 5772 5773 5772 5771 5770 5767 5766 5765 5763 5762 5761 5760 5758 5756 5754 5753 5752 5751 5751 5751 5751 5750
5792 5804 5805 5800 5795 5794 5781 5797 5792 5783 5768 5756 5765 5745 5765 5772 5775 5778 5779 5778 5778 5777 5776 5774 5772 5770 5769 5768 5766 5763 5761 5760 5759 5758 5756 5754 5750 5747 5747 5747 5747 5747 5748 5747
5791 5802 5801 5796 5801 5801 5793 5800 5791 5780 5764 5753 5756 5746 5755 5768 5767 5774 5779 5780 5781 5780 5778 5775 5774 5772 5770 5769 5766 5764 5760 5757 5757 5756 5754 5752 5749 5747 5745 5745 5744 5743 5744 5744
5797 5809 5809 5806 5810 5808 5801 5789 5777 5763 5752 5738 5749 5743 5748 5760 5769 5775 5780 5782 5782 5781 5779 5776 5775 5773 5769 5767 5764 5762 5759 5756 5754 5753 5751 5749 5746 5744 5741 5740 5739 5739 5739 5740
5784 5797 5808 5812 5799 5798 5791 5765 5741 5737 5726 5731 5747 5743 5750 5774 5781 5782 5781 5782 5783 5782 5778 5775 5772 5770 5767 5764 5762 5760 5756 5753 5752 5750 5749 5747 5745 5743 5739 5737 5736 5735 5734 5735
5765 5767 5796 5804 5798 5786 5781 5769 5739 5727 5722 5729 5742 5740 5761 5783 5788 5788 5786 5784 5782 5780 5777 5775 5772 5768 5765 5762 5760 5757 5754 5751 5750 5748 5746 5744 5742 5740 5738 5735 5734 5732 5731 5732
5762 5766 5798 5805 5805 5795 5776 5763 5763 5737 5730 5724 5733 5747 5767 5783 5782 5782 5781 5779 5778 5777 5776 5774 5771 5767 5764 5760 5757 5755 5752 5750 5748 5746 5744 5741 5738 5737 5735 5733 5731 5730 5729 5729
5778 5768 5785 5796 5799 5791 5785 5766 5747 5733 5720 5717 5730 5739 5748 5767 5772 5775 5775 5774 5774 5774 5773 5771 5768 5766 5763 5759 5756 5754 5751 5748 5745 5743 5741 5738 5735 5734 5732 5730 5728 5727 5726 5725
5781 5765 5770 5778 5775 5772 5771 5760 5744 5729 5728 5717 5716 5736 5772 5772 5774 5773 5774 5774 5773 5771 5770 5768 5765 5763 5760 5757 5754 5751 5748 5745 5742 5739 5736 5734 5731 5729 5728 5726 5725 5723 5722 5721
5773 5757 5749 5764 5780 5784 5777 5764 5747 5736 5728 5721 5717 5737 5783 5779 5778 5776 5774 5774 5772 5770 5767 5765 5762 5760 5757 5754 5751 5748 5745 5742 5740 5737 5733 5730 5728 5725 5723 5722 5720 5719 5717 5716
5770 5751 5735 5741 5754 5768 5766 5763 5753 5741 5726 5715 5716 5740 5777 5776 5775 5774 5773 5772 5770 5767 5764 5761 5758 5756 5753 5750 5747 5745 5742 5739 5737 5733 5730 5727 5724 5721 5719 5717 5715 5714 5713 5711
5775 5748 5739 5734 5742 5756 5758 5759 5752 5742 5727 5722 5728 5743 5761 5767 5768 5769 5769 5768 5766 5763 5760 5756 5753 5751 5750 5747 5744 5741 5739 5736 5733 5729 5726 5722 5719 5717 5715 5713 5711 5710 5708 5706
5768 5746 5748 5750 5758 5758 5758 5757 5753 5747 5742 5735 5742 5743 5757 5764 5766 5766 5766 5763 5761 5758 5755 5753 5750 5748 5746 5743 5740 5737 5734 5731 5728 5724 5720 5718 5715 5713 5711 5709 5707 5705 5703 5701
5754 5744 5744 5745 5753 5753 5750 5754 5753 5751 5748 5744 5746 5748 5763 5764 5764 5762 5761 5759 5755 5753 5752 5750 5748 5745 5742 5739 5735 5733 5730 5726 5723 5718 5715 5713 5710 5708 5706 5704 5702 5699 5697 5694
5739 5736 5729 5726 5739 5744 5733 5747 5750 5749 5751 5748 5742 5752 5758 5756 5757 5757 5757 5756 5753 5751 5749 5746 5744 5741 5738 5735 5732 5728 5725 5722 5717 5713 5710 5707 5705 5702 5700 5699 5696 5693 5691 5688
5733 5724 5715 5715 5727 5717 5737 5757 5757 5752 5752 5753 5753 5754 5755 5755 5754 5754 5755 5752 5749 5747 5744 5742 5740 5736 5734 5731 5727 5723 5720 5716 5712 5708 5705 5702 5699 5696 5694 5692 5689 5687 5685 5682
5734 5723 5708 5702 5707 5717 5738 5752 5752 5746 5744 5753 5750 5750 5750 5751 5748 5746 5750 5749 5747 5744 5741 5738 5735 5732 5728 5725 5722 5718 5714 5710 5706 5703 5700 5697 5694 5690 5687 5685 5682 5680 5678 5675
5723 5720 5708 5699 5704 5704 5730 5753 5758 5749 5734 5751 5749 5746 5744 5744 5730 5735 5744 5743 5740 5737 5734 5732 5729 5725 5721 5719 5716 5711 5707 5703 5700 5697 5694 5691 5688 5685 5682 5679 5677 5674 5671 5668
5711 5705 5701 5697 5700 5711 5738 5750 5751 5725 5730 5750 5747 5744 5741 5737 5737 5739 5740 5737 5734 5730 5728 5726 5722 5718 5715 5712 5709 5704 5700 5697 5695 5692 5688 5685 5683 5680 5677 5674 5671 5667 5664 5661
5701 5697 5693 5689 5693 5706 5741 5741 5734 5735 5746 5746 5744 5742 5739 5736 5735 5734 5732 5729 5726 5723 5721 5718 5714 5710 5708 5705 5701 5697 5694 5693 5690 5686 5682 5679 5676 5675 5673 5668 5664 5661 5657 5654
5698 5701 5698 5700 5707 5725 5734 5737 5743 5743 5741 5741 5740 5739 5736 5732 5729 5727 5725 5722 5719 5717 5714 5711 5707 5703 5700 5697 5694 5690 5688 5687 5683 5679 5675 5672 5670 5667 5664 5661 5658 5654 5651 5648
5699 5701 5697 5700 5713 5723 5730 5735 5738 5739 5738 5739 5739 5737 5733 5728 5724 5721 5718 5714 5711 5709 5707 5704 5700 5695 5692 5690 5687 5685 5683 5680 5676 5672 5668 5666 5663 5659 5656 5653 5651 5648 5645 5641
5697 5696 5693 5697 5709 5717 5726 5729 5732 5734 5734 5733 5732 5731 5728 5724 5718 5715 5711 5708 5705 5702 5699 5696 5691 5688 5686 5684 5681 5679 5677 5673 5669 5664 5661 5658 5654 5651 5648 5646 5643 5641 5638 5635
5691 5691 5689 5694 5707 5706 5714 5723 5727 5726 5726 5726 5725 5722 5721 5719 5714 5710 5706 5702 5699 5695 5692 5689 5686 5682 5679 5677 5675 5673 5670 5666 5662 5657 5654 5650 5647 5643 5641 5638 5635 5633 5631 5629